sat.trackr.live / text

‹ back to catalog

ISS OBJECT YJ

NORAD 69794 · 1998-067YJ

PAYLOAD ACTIVE UNKNOWN

§ Identity

Operator
Country
TBD
Launch date
1998-11-20
Launch site
TYMSC
Launch vehicle
Mass (kg)
RCS (m²)

External: N2YO · Heavens-Above · Gunter

§ Orbital elements

Epoch: 2026-09-18T02:07:03.030528Z

Period
92.67 min
Inclination
51.6302°
Eccentricity
0.0008436
Mean motion
15.53867441 rev/d
Perigee alt
399.7 km
Apogee alt
411.2 km
Semi-major
6,783.6 km
B*
4.4990e-4
RAAN
198.9304°
Arg perigee
163.6846°
Mean anomaly
196.4417°
Rev number
1,207

§ Raw data

ISS OBJECT YJ1 69794U 98067YJ  26261.08822952  .00029166  00000+0  44990-3 0  99902 69794  51.6302 198.9304 0008436 163.6846 196.4417 15.53867441 12079

JSON: /api/v1/satellites/69794 · /tle

For live sub-satellite position, see the globe view (requires WebGL).

§ Visibility from observer

Set your observer location to see the next 7 days of passes ≥ 10°. The values pass through the URL so the page stays shareable.

No JS? Fill the form by hand. The geolocation button needs JavaScript.